HEBOWX Weather Reports


Display with metric or nautical units.
time (UTC)temp
F
wind
direction
speed
MPH
gust
MPH
rain 1hr
in
rain 24hr
in
rain mn
in
humidity
%
barometer
mb
20220518025019 48 288 9.0 12.0 0.00 0.00 0.00 78 1022.9
20220518024519 48 284 10.0 12.0 0.00 0.00 0.00 81 1023.1
20220518024019 49 295 9.0 9.0 0.00 0.00 0.00 83 1023.2
20220518023520 49 288 7.0 12.0 0.00 0.00 0.00 81 1023.3
20220518023019 49 282 9.0 12.0 0.00 0.00 0.00 84 1023.1
20220518022519 50 294 8.0 12.0 0.00 0.00 0.00 78 1023.2
20220518022019 50 280 8.0 10.0 0.00 0.00 0.00 79 1023.4
20220518021519 51 284 8.0 8.0 0.00 0.00 0.00 86 1023.1
20220518021019 50 266 4.0 10.0 0.00 0.00 0.00 83 1023.2
20220518020519 50 292 7.0 10.0 0.00 0.00 0.00 86 1023.3
20220518020019 49 271 5.0 10.0 0.00 0.00 0.00 85 1023.2
20220518015520 49 287 6.0 9.0 0.00 0.00 0.00 89 1023.2
20220518015019 48 288 6.0 9.0 0.00 0.00 0.00 89 1023.3
20220518014519 49 317 5.0 9.0 0.00 0.00 0.00 90 1023.3
20220518014019 48 29 5.0 9.0 0.00 0.00 0.00 91 1023.5
20220518013519 49 351 7.0 10.0 0.00 0.00 0.00 90 1023.6
20220518013019 49 14 8.0 10.0 0.00 0.00 0.00 90 1023.7
20220518012519 49 30 7.0 10.0 0.00 0.00 0.00 90 1023.7
20220518012020 50 7 6.0 8.0 0.00 0.00 0.00 90 1023.8
20220518011519 49 306 2.0 8.0 0.00 0.00 0.00 90 1023.8
20220518011019 50 345 5.0 8.0 0.00 0.00 0.00 90 1023.8
20220518010519 50 351 6.0 8.0 0.00 0.00 0.00 90 1024.0
20220518010019 49 352 6.0 11.0 0.00 0.00 0.00 90 1024.1
20220518005520 50 334 7.0 11.0 0.00 0.00 0.00 89 1024.2
20220518005019 50 320 7.0 11.0 0.00 0.00 0.00 88 1024.2
20220518004519 49 331 8.0 10.0 0.00 0.00 0.00 89 1024.2
20220518004019 49 341 7.0 10.0 0.00 0.00 0.00 87 1024.3
20220518003520 49 337 7.0 12.0 0.00 0.00 0.00 88 1024.3
20220518003019 46 347 7.0 12.0 0.00 0.00 0.00 88 1024.3
20220518002519 49 323 9.0 12.0 0.00 0.00 0.00 87 1024.4
20220518002019 51 336 9.0 11.0 0.00 0.00 0.00 84 1024.4
20220518001519 51 354 7.0 11.0 0.00 0.00 0.00 87 1024.5
20220518001019 51 334 8.0 10.0 0.00 0.00 0.00 88 1024.5
20220518000519 51 303 7.0 12.0 0.00 0.00 0.00 86 1024.6
20220518000019 51 294 9.0 12.0 0.00 0.00 0.00 85 1024.6
20220517235519 51 299 9.0 12.0 0.00 0.00 0.00 85 1024.6
20220517235019 51 319 9.0 11.0 0.00 0.00 0.00 88 1024.7
20220517234519 51 340 6.0 11.0 0.00 0.00 0.00 87 1024.7
20220517234019 52 315 9.0 9.0 0.00 0.00 0.00 87 1024.7
20220517233519 52 320 6.0 14.0 0.00 0.00 0.00 87 1024.7
20220517233019 52 306 9.0 14.0 0.00 0.00 0.00 86 1024.7
20220517232519 52 287 7.0 14.0 0.00 0.00 0.00 87 1024.7
20220517232019 52 329 8.0 13.0 0.00 0.00 0.00 87 1024.8
20220517231519 52 295 9.0 13.0 0.00 0.00 0.00 86 1025.0
20220517231019 52 309 9.0 13.0 0.00 0.00 0.00 86 1025.1
20220517230519 53 302 9.0 11.0 0.00 0.00 0.00 82 1025.1
20220517230020 53 337 7.0 13.0 0.00 0.00 0.00 88 1024.8
20220517225519 52 313 6.0 13.0 0.00 0.00 0.00 86 1025.0
20220517225020 52 288 9.0 13.0 0.00 0.00 0.00 87 1025.0
20220517224519 52 298 8.0 13.0 0.00 0.00 0.00 85 1025.0
20220517224019 53 296 8.0 13.0 0.00 0.00 0.00 86 1025.1
20220517223519 53 312 10.0 11.0 0.00 0.00 0.00 88 1025.2
20220517223019 53 347 8.0 9.0 0.00 0.00 0.00 88 1025.1
20220517222519 52 8 7.0 12.0 0.00 0.00 0.00 90 1025.1
20220517222020 52 16 6.0 12.0 0.00 0.00 0.00 90 1025.2
20220517221519 52 15 6.0 12.0 0.00 0.00 0.00 90 1025.1
20220517221019 53 345 6.0 12.0 0.00 0.00 0.00 91 1025.1
20220517220519 53 11 4.0 12.0 0.00 0.00 0.00 91 1025.1
20220517220020 53 2 6.0 10.0 0.00 0.00 0.00 91 1025.2
20220517215519 53 343 7.0 10.0 0.00 0.00 0.00 90 1025.2
20220517215020 53 317 8.0 10.0 0.00 0.00 0.00 90 1025.2
20220517214519 53 322 3.0 10.0 0.00 0.00 0.00 91 1025.3
20220517214019 52 295 8.0 10.0 0.00 0.00 0.00 90 1025.3
20220517213519 52 338 7.0 9.0 0.00 0.00 0.00 91 1025.3
20220517213019 52 323 7.0 9.0 0.00 0.00 0.00 91 1025.3
20220517212519 52 323 8.0 9.0 0.00 0.00 0.00 91 1025.4
20220517212019 52 21 2.0 9.0 0.00 0.00 0.00 92 1025.4
20220517211519 52 21 2.0 9.0 0.00 0.00 0.00 92 1025.4
20220517211019 52 357 7.0 9.0 0.00 0.00 0.00 92 1025.4
20220517210519 51 343 7.0 9.0 0.00 0.00 0.00 92 1025.5
20220517210019 52 21 3.0 8.0 0.00 0.00 0.00 91 1025.5
20220517205519 52 5 5.0 8.0 0.00 0.00 0.00 91 1025.5
20220517205019 53 267 0.0 6.0 0.00 0.00 0.00 91 1025.5
20220517204519 53 324 0.0 6.0 0.00 0.00 0.00 91 1025.5
20220517204020 53 12 1.0 6.0 0.00 0.00 0.00 91 1025.5
20220517203519 53 35 2.0 5.0 0.00 0.00 0.00 91 1025.5
20220517203019 53 278 2.0 7.0 0.00 0.00 0.00 92 1025.5
20220517202519 52 320 3.0 7.0 0.00 0.00 0.00 91 1025.4
20220517202019 52 288 2.0 7.0 0.00 0.00 0.00 91 1025.4
20220517201519 51 77 1.0 6.0 0.00 0.00 0.00 93 1025.4
20220517201018 51 16 0.0 8.0 0.00 0.00 0.00 92 1025.4
20220517200519 51 15 3.0 8.0 0.00 0.00 0.00 93 1025.4
20220517200019 51 22 3.0 8.0 0.00 0.00 0.00 93 1025.4
20220517195519 50 4 4.0 6.0 0.00 0.00 0.00 93 1025.4
20220517195019 50 350 2.0 11.0 0.00 0.00 0.00 93 1025.4
20220517194518 49 308 2.0 11.0 0.00 0.00 0.00 92 1025.5
20220517194019 50 313 6.0 11.0 0.00 0.00 0.00 91 1025.5
20220517193519 49 303 7.0 11.0 0.00 0.00 0.00 93 1025.5
20220517193019 49 291 4.0 11.0 0.00 0.00 0.00 92 1025.6
20220517192519 49 302 7.0 11.0 0.00 0.00 0.00 92 1025.5
20220517192019 49 298 5.0 10.0 0.00 0.00 0.00 93 1025.6
20220517191519 49 357 7.0 9.0 0.00 0.00 0.00 93 1025.6
20220517191019 49 320 3.0 9.0 0.00 0.00 0.00 93 1025.6
20220517190519 49 312 6.0 6.0 0.00 0.00 0.00 93 1025.6
20220517190019 49 323 1.0 6.0 0.00 0.00 0.00 92 1025.6
20220517185518 50 352 4.0 6.0 0.00 0.00 0.00 93 1025.7
20220517185018 50 14 2.0 11.0 0.00 0.00 0.00 93 1025.6
20220517184518 50 308 2.0 11.0 0.00 0.00 0.00 92 1025.6
20220517184019 50 326 5.0 11.0 0.00 0.00 0.00 92 1025.6
20220517183518 50 317 8.0 14.0 0.00 0.00 0.00 92 1025.5
20220517183018 50 324 6.0 14.0 0.00 0.00 0.00 92 1025.5
20220517182518 50 320 9.0 14.0 0.00 0.00 0.00 93 1025.4
20220517182018 49 327 10.0 10.0 0.00 0.00 0.00 93 1025.3
20220517181518 49 324 7.0 9.0 0.00 0.00 0.00 94 1025.2
20220517181018 49 336 6.0 9.0 0.00 0.00 0.00 94 1025.1
20220517180518 49 1 3.0 9.0 0.00 0.00 0.00 94 1025.1
20220517180018 50 19 6.0 11.0 0.00 0.00 0.00 93 1025.1
20220517175518 49 336 3.0 11.0 0.00 0.00 0.00 93 1025.1
20220517175018 49 296 4.0 11.0 0.00 0.00 0.00 94 1025.1
20220517174518 48 340 6.0 10.0 0.00 0.00 0.00 94 1025.0
20220517174018 48 315 6.0 9.0 0.00 0.00 0.00 94 1025.0
20220517173518 48 309 5.0 9.0 0.00 0.00 0.00 95 1024.8
20220517173018 48 0 4.0 9.0 0.00 0.00 0.00 94 1024.8
20220517172518 48 343 5.0 9.0 0.00 0.00 0.00 95 1025.0
20220517172019 48 334 4.0 9.0 0.00 0.00 0.00 95 1024.8
20220517171518 47 326 6.0 6.0 0.00 0.00 0.00 94 1024.7
20220517171019 47 8 0.0 7.0 0.00 0.00 0.00 95 1024.7
20220517170518 47 291 2.0 7.0 0.00 0.00 0.00 95 1024.6
20220517170018 48 309 5.0 7.0 0.00 0.01 0.00 94 1024.5
20220517165519 48 322 6.0 6.0 0.00 0.01 0.00 95 1024.5